EW4443 Weather Reports


time (UTC)temp
F
wind
direction
speed
knots
gust
knots
rain 1hr
in
rain 24hr
in
rain mn
in
humidity
%
barometer
mb
20260504041018 83 158 2.6 9.6 0.00 0.00 0.00 22 1007.6
20260504040519 83 203 2.6 10.4 0.00 0.00 0.00 20 1007.6
20260504040018 84 180 2.6 10.4 0.00 0.00 0.00 22 1007.6
20260504035518 84 158 2.6 12.2 0.00 0.00 0.00 22 1007.3
20260504035017 84 180 2.6 12.2 0.00 0.00 0.00 22 1007.3
20260504034516 84 248 2.6 11.3 0.00 0.00 0.00 20 1007.3
20260504034016 84 180 1.7 9.6 0.00 0.00 0.00 20 1006.9
20260504033517 84 248 2.6 11.3 0.00 0.00 0.00 20 1006.9
20260504033018 85 248 2.6 13.9 0.00 0.00 0.00 20 1006.5
20260504032518 85 248 2.6 13.9 0.00 0.00 0.00 20 1006.5
20260504032017 85 203 2.6 13.9 0.00 0.00 0.00 20 1006.5
20260504031517 85 225 3.5 12.2 0.00 0.00 0.00 20 1006.2
20260504031016 85 203 2.6 12.2 0.00 0.00 0.00 19 1006.2
20260504030515 86 180 2.6 12.2 0.00 0.00 0.00 19 1006.2
20260504030015 86 158 1.7 11.3 0.00 0.00 0.00 19 1006.2
20260504025515 86 203 2.6 11.3 0.00 0.00 0.00 17 1006.2
20260504025016 86 158 2.6 11.3 0.00 0.00 0.00 17 1006.2
20260504024516 87 180 2.6 11.3 0.00 0.00 0.00 17 1005.9
20260504024247 87 180 2.6 11.3 0.00 0.00 0.00 17 1005.9
20260504023747 87 203 1.7 13.0 0.00 0.00 0.00 17 1005.5
20260504023016 87 158 2.6 13.0 0.00 0.00 0.00 17 1005.5
20260504022514 88 203 1.7 14.8 0.00 0.00 0.00 17 1005.5
20260504022015 88 225 3.5 14.8 0.00 0.00 0.00 17 1005.2
20260504021513 88 203 2.6 11.3 0.00 0.00 0.00 17 1005.2
20260504021014 89 158 3.5 13.0 0.00 0.00 0.00 17 1005.2
20260504020514 89 158 2.6 14.8 0.00 0.00 0.00 17 1005.2
20260504020019 90 180 3.5 14.8 0.00 0.00 0.00 15 1004.8
20260504020015 89 180 3.5 14.8 0.00 0.00 0.00 15 1004.8
20260504015014 90 203 2.6 12.2 0.00 0.00 0.00 15 1004.8
20260504014515 91 225 2.6 10.4 0.00 0.00 0.00 15 1004.8
20260504014013 91 158 1.7 13.0 0.00 0.00 0.00 15 1004.5
20260504013512 91 180 2.6 13.0 0.00 0.00 0.00 15 1004.5
20260504013013 91 203 1.7 7.0 0.00 0.00 0.00 15 1004.5
20260504012512 92 248 1.7 11.3 0.00 0.00 0.00 15 1004.5
20260504012013 92 203 2.6 11.3 0.00 0.00 0.00 13 1004.8
20260504011513 92 180 2.6 11.3 0.00 0.00 0.00 13 1004.5
20260504011013 93 225 2.6 10.4 0.00 0.00 0.00 15 1004.5
20260504010743 93 248 2.6 10.4 0.00 0.00 0.00 15 1004.5
20260504010012 93 180 2.6 11.3 0.00 0.00 0.00 13 1004.5
20260504005513 93 180 2.6 11.3 0.00 0.00 0.00 13 1004.5
20260504005011 94 158 1.7 10.4 0.00 0.00 0.00 15 1004.5
20260504004511 94 180 2.6 11.3 0.00 0.00 0.00 13 1004.5
20260504004011 94 203 3.5 11.3 0.00 0.00 0.00 13 1004.5
20260504003512 94 135 2.6 13.0 0.00 0.00 0.00 13 1004.5
20260504003013 94 158 3.5 13.0 0.00 0.00 0.00 13 1004.5
20260504002512 95 203 2.6 12.2 0.00 0.00 0.00 13 1004.5
20260504001954 95 203 1.7 11.3 0.00 0.00 0.00 12 1004.5
20260504001724 95 180 2.6 11.3 0.00 0.00 0.00 13 1004.5
20260504000952 96 203 2.6 12.2 0.00 0.00 0.00 13 1004.5
20260504000452 96 180 2.6 12.2 0.00 0.00 0.00 15 1004.1
20260503235952 96 158 2.6 10.4 0.00 0.00 0.00 13 1004.5
20260503235452 96 248 2.6 13.0 0.00 0.00 0.00 13 1004.5
20260503234953 96 293 2.6 13.0 0.00 0.00 0.00 13 1004.5
20260503234453 96 180 1.7 9.6 0.00 0.00 0.00 13 1004.1
20260503233953 96 203 1.7 7.0 0.00 0.00 0.00 15 1004.5
20260503233440 96 158 1.7 7.0 0.00 0.00 0.00 13 1004.1
20260503232935 96 203 1.7 7.8 0.00 0.00 0.00 13 1004.5
20260503232704 96 180 1.7 9.6 0.00 0.00 0.00 13 1004.5
20260503231932 96 203 1.7 9.6 0.00 0.00 0.00 13 1004.5
20260503231433 96 225 1.7 7.0 0.00 0.00 0.00 13 1004.8
20260503230933 96 225 1.7 7.0 0.00 0.00 0.00 15 1004.5
20260503230433 96 180 0.9 7.0 0.00 0.00 0.00 15 1004.8
20260503225934 96 180 0.9 7.0 0.00 0.00 0.00 15 1004.8
20260503225704 96 23 0.9 5.2 0.00 0.00 0.00 15 1004.8
20260503225204 96 45 0.9 7.8 0.00 0.00 0.00 15 1004.8
20260503224433 96 203 1.7 7.8 0.00 0.00 0.00 15 1005.2
20260503223932 96 248 0.9 7.0 0.00 0.00 0.00 15 1005.2
20260503223432 96 45 1.7 8.7 0.00 0.00 0.00 15 1005.5
20260503222932 96 203 1.7 9.6 0.00 0.00 0.00 15 1005.2
20260503222703 96 180 1.7 9.6 0.00 0.00 0.00 15 1005.5
20260503221933 96 270 0.9 13.9 0.00 0.00 0.00 15 1005.5
20260503221433 96 203 1.7 13.9 0.00 0.00 0.00 15 1005.9
20260503220933 96 180 1.7 8.7 0.00 0.00 0.00 15 1005.9
20260503220432 96 270 1.7 8.7 0.00 0.00 0.00 15 1005.9
20260503215931 95 203 1.7 8.7 0.00 0.00 0.00 15 1005.9
20260503215431 95 180 1.7 10.4 0.00 0.00 0.00 15 1005.9
20260503214931 95 180 2.6 10.4 0.00 0.00 0.00 15 1006.2
20260503214431 95 248 1.7 9.6 0.00 0.00 0.00 15 1006.2
20260503213932 95 180 1.7 11.3 0.00 0.00 0.00 15 1006.2
20260503213432 95 180 1.7 11.3 0.00 0.00 0.00 15 1006.5
20260503212932 95 203 2.6 11.3 0.00 0.00 0.00 15 1006.5
20260503212432 95 203 2.6 11.3 0.00 0.00 0.00 15 1006.9
20260503211913 95 270 1.7 8.7 0.00 0.00 0.00 17 1006.9
20260503211412 95 158 1.7 9.6 0.00 0.00 0.00 17 1006.9
20260503210912 95 158 1.7 9.6 0.00 0.00 0.00 17 1006.9
20260503210417 94 203 1.7 10.4 0.00 0.00 0.00 17 1006.9
20260503210413 95 180 1.7 8.7 0.00 0.00 0.00 17 1006.9
20260503205413 94 158 2.6 10.4 0.00 0.00 0.00 17 1007.3
20260503204913 94 180 1.7 7.8 0.00 0.00 0.00 17 1007.3
20260503204413 94 68 1.7 11.3 0.00 0.00 0.00 15 1007.6
20260503203913 94 180 1.7 11.3 0.00 0.00 0.00 17 1007.6
20260503203412 94 135 1.7 7.0 0.00 0.00 0.00 17 1007.6
20260503202911 94 158 1.7 9.6 0.00 0.00 0.00 17 1007.6
20260503202411 94 225 1.7 9.6 0.00 0.00 0.00 17 1008.0
20260503201912 95 180 1.7 7.0 0.00 0.00 0.00 17 1008.0
20260503201411 95 135 1.7 7.8 0.00 0.00 0.00 17 1008.0
20260503200911 94 180 1.7 7.8 0.00 0.00 0.00 17 1008.0
20260503200412 94 203 1.7 7.8 0.00 0.00 0.00 17 1008.3
20260503195912 94 248 1.7 7.8 0.00 0.00 0.00 17 1008.0
20260503195411 94 135 1.7 8.7 0.00 0.00 0.00 17 1008.3
20260503194911 94 158 1.7 10.4 0.00 0.00 0.00 17 1008.3
20260503194410 94 180 1.7 10.4 0.00 0.00 0.00 19 1008.3
20260503193910 94 203 1.7 7.8 0.00 0.00 0.00 17 1008.0
20260503193410 94 248 0.9 5.2 0.00 0.00 0.00 19 1008.3
20260503192910 93 158 0.9 7.8 0.00 0.00 0.00 19 1008.7
20260503192411 93 158 1.7 10.4 0.00 0.00 0.00 17 1008.7
20260503192141 93 135 1.7 10.4 0.00 0.00 0.00 17 1008.7
20260503191411 93 203 1.7 8.7 0.00 0.00 0.00 20 1008.7
20260503190911 92 203 0.9 5.2 0.00 0.00 0.00 22 1008.7
20260503190410 92 248 0.9 5.2 0.00 0.00 0.00 22 1009.0
20260503185910 91 338 0.9 5.2 0.00 0.00 0.00 24 1008.7
20260503185409 91 270 0.9 5.2 0.00 0.00 0.00 22 1009.0
20260503184910 91 180 0.9 5.2 0.00 0.00 0.00 22 1009.0
20260503184409 91 90 0.9 5.2 0.00 0.00 0.00 22 1009.0
20260503183912 90 45 0.0 3.5 0.00 0.00 0.00 24 1009.0
20260503183411 90 0 0.0 4.3 0.00 0.00 0.00 24 1009.0
20260503182912 90 293 0.9 7.8 0.00 0.00 0.00 22 1009.3
20260503182411 90 90 1.7 7.8 0.00 0.00 0.00 22 1009.7
20260503181910 90 203 0.9 5.2 0.00 0.00 0.00 24 1009.3
20260503181409 90 338 0.9 5.2 0.00 0.00 0.00 22 1009.3
20260503180910 90 270 0.9 7.8 0.00 0.00 0.00 24 1009.7
20260503180409 89 203 0.9 7.8 0.00 0.00 0.00 24 1010.0
20260503175909 89 248 0.9 6.1 0.00 0.00 0.00 24 1009.7
20260503175411 89 0 0.9 6.1 0.00 0.00 0.00 25 1010.0
20260503174911 88 315 0.9 5.2 0.00 0.00 0.00 24 1009.7
20260503174411 88 225 0.9 6.1 0.00 0.00 0.00 25 1010.0
20260503173911 88 158 0.9 7.0 0.00 0.00 0.00 24 1010.0
20260503173410 87 225 0.9 7.0 0.00 0.00 0.00 25 1010.0
20260503172909 87 293 0.9 4.3 0.00 0.00 0.00 24 1010.0
20260503172409 87 90 0.9 6.1 0.00 0.00 0.00 24 1010.0
20260503171909 87 293 0.9 6.1 0.00 0.00 0.00 25 1009.7
20260503171409 86 203 0.9 5.2 0.00 0.00 0.00 25 1010.0
20260503170910 86 180 0.9 5.2 0.00 0.00 0.00 25 1010.0
20260503170410 86 203 0.9 6.1 0.00 0.00 0.00 25 1010.0
20260503150850 79 293 0.0 3.5 0.00 0.00 0.00 31 1010.5
20260503150350 79 23 0.0 3.5 0.00 0.00 0.00 31 1010.5
20260503131351 76 203 0.0 3.5 0.00 0.00 0.00 32 1009.7
20260503130852 76 180 0.0 1.7 0.00 0.00 0.00 32 1010.0
20260503130351 76 270 0.0 2.6 0.00 0.00 0.00 32 1009.7
20260503110350 76 315 0.0 0.0 0.00 0.00 0.00 31 1009.3
20260503090351 76 23 0.0 2.6 0.00 0.00 0.00 30 1009.0
20260503081350 77 45 0.0 1.7 0.00 0.00 0.00 27 1009.3
20260503080850 77 270 0.0 1.7 0.00 0.00 0.00 27 1009.3
20260503080350 78 45 0.0 1.7 0.00 0.00 0.00 27 1009.3
20260503072850 77 248 0.0 0.9 0.00 0.00 0.00 27 1009.3
20260503072350 78 45 0.0 0.0 0.00 0.00 0.00 29 1009.3
20260503071850 78 45 0.0 0.0 0.00 0.00 0.00 29 1009.3
20260503071349 78 45 0.0 0.0 0.00 0.00 0.00 27 1009.3
20260503070850 78 45 0.0 0.0 0.00 0.00 0.00 27 1009.3
20260503070350 78 0 0.0 0.0 0.00 0.00 0.00 27 1009.0
20260503070123 78 45 0.0 0.0 0.00 0.00 0.00 27 1009.3
20260503060127 79 203 0.0 0.0 0.00 0.00 0.00 25 1009.0
20260503054349 79 315 0.0 0.0 0.00 0.00 0.00 24 1009.0
20260503053849 79 293 0.0 0.9 0.00 0.00 0.00 24 1009.0
20260503053350 79 45 0.0 0.9 0.00 0.00 0.00 24 1009.0
20260503052851 79 0 0.0 0.9 0.00 0.00 0.00 24 1009.0
20260503052350 79 180 0.0 1.7 0.00 0.00 0.00 25 1009.0
20260503051851 79 293 0.0 1.7 0.00 0.00 0.00 24 1009.0
20260503051351 79 0 0.0 0.0 0.00 0.00 0.00 25 1009.0
20260503050850 80 45 0.0 0.0 0.00 0.00 0.00 27 1009.0
20260503050620 80 45 0.0 0.0 0.00 0.00 0.00 25 1008.7
20260503050120 80 23 0.0 0.0 0.00 0.00 0.00 27 1008.7
20260503045349 80 135 0.0 0.0 0.00 0.00 0.00 25 1008.7
20260503044850 80 23 0.0 0.0 0.00 0.00 0.00 27 1008.7
20260503044351 80 45 0.0 0.0 0.00 0.00 0.00 27 1008.7
20260503044121 80 45 0.0 0.0 0.00 0.00 0.00 25 1008.3
20260503043350 81 45 0.0 0.0 0.00 0.00 0.00 25 1008.3
20260503042851 81 45 0.0 0.0 0.00 0.00 0.00 25 1008.7
20260503042350 81 23 0.0 0.0 0.00 0.00 0.00 25 1008.7
20260503042121 82 23 0.0 0.0 0.00 0.00 0.00 25 1008.7